Location: Unspecified
(40.7945°N, 0.0000°E)
Time: 02:23:58
(UTC+00:00)

Altair - Pass Details

Date: 24 January 2021
Orbit: 1501 x 1682 km, 47.2° (Epoch: 01 March)

Event Time Altitude Azimuth Distance (km) Brightness Sun altitude
Rises 11:13:06 0° 298° (WNW) 4,940 9.8 28.6°
Reaches altitude 10° 11:16:18 10° 296° (WNW) 3,946 9.4 28.7°
Maximum altitude 11:26:19 67° 217° (SW) 1,774 8.6 29.2°
Drops below altitude 10° 11:36:03 10° 137° (SE) 3,838 10.6 29.5°
Sets 11:39:08 0° 135° (SE) 4,798 10.8 29.6°
